Barnwell, SC

8:43 AM EDT on March 26, 2017 (GMT -0400)
Barnwell County

Weather History for KBNL - December, 2012

Change the Weather History Date:

Sunday, December 2, 2012

  Actual Average (KOGB) Record (KOGB)
Temperature  
Mean Temperature 62 °F -  
Max Temperature 75 °F 61 °F 80 °F (1982)
Min Temperature 50 °F 37 °F 21 °F (1979)
Degree Days  
Heating Degree Days 2    
Growing Degree Days 12 (Base 50)    
Moisture  
Dew Point 54 °F    
Average Humidity 77    
Maximum Humidity 100    
Minimum Humidity 47    
Precipitation  
Precipitation 0.00 in - - ()
Sea Level Pressure  
Sea Level Pressure 30.33 in    
Wind  
Wind Speed 1 mph (South)    
Max Wind Speed 9 mph    
Max Gust Speed -    
Visibility 10 miles    
Events      
Averages and records for this station are not official NWS values.
T = Trace of Precipitation, MM = Missing Value Source: NWS Daily Summary

Daily Weather History Graph

Daily Weather History Graph

Search for Another Location

Airport or City:

Trip Planner

Search our weather history database for the weather conditions in past years. The results will help you decide how hot, cold, wet, or windy it might be!

Date:

Astronomy

Dec. 02, 2012 Rise Set
Actual Time 7:12 AM EST 5:17 PM EST
Civil Twilight 6:45 AM EST 5:45 PM EST
Nautical Twilight 6:14 AM EST 6:15 PM EST
Astronomical Twilight 5:44 AM EST 6:45 PM EST
Moon 8:59 PM EST (12/2) 10:05 AM EST (12/2)
Length of Visible Light 10h 59m
Length of Day
10h 05m
Waning Gibbous, 86% of the Moon is Illuminated
Dec 2
Waning Gibbous
Dec 6
Last Quarter
Dec 13
New
Dec 20
First Quarter
Dec 28
Full

Hourly Weather History & Observations

Time (EST) Temp. Dew Point Humidity Pressure Visibility Wind Dir Wind Speed Gust Speed Precip Events Conditions
12:15 AM 50.0 °F 48.2 °F 94% 30.36 in 10.0 mi Calm Calm - N/A   Overcast
12:35 AM 51.8 °F 48.2 °F 88% 30.35 in 10.0 mi Calm Calm - N/A   Mostly Cloudy
1:15 AM 51.8 °F 48.2 °F 88% 30.35 in 10.0 mi Calm Calm - N/A   Overcast
1:55 AM 50.0 °F 48.2 °F 94% 30.35 in 10.0 mi Calm Calm - N/A   Mostly Cloudy
2:15 AM 51.8 °F 48.2 °F 88% 30.35 in 10.0 mi Calm Calm - N/A   Mostly Cloudy
2:35 AM 51.8 °F 50.0 °F 94% 30.36 in 10.0 mi Calm Calm - N/A   Overcast
2:55 AM 53.6 °F 50.0 °F 88% 30.36 in 10.0 mi Calm Calm - N/A   Overcast
3:15 AM 53.6 °F 51.8 °F 94% 30.36 in 10.0 mi Calm Calm - N/A   Overcast
3:35 AM 53.6 °F 51.8 °F 94% 30.36 in 10.0 mi Calm Calm - N/A   Overcast
3:55 AM 53.6 °F 51.8 °F 94% 30.35 in 10.0 mi Calm Calm - N/A   Mostly Cloudy
4:15 AM 53.6 °F 51.8 °F 94% 30.35 in 10.0 mi Calm Calm - N/A   Mostly Cloudy
4:35 AM 53.6 °F 50.0 °F 88% 30.35 in 10.0 mi Calm Calm - N/A   Overcast
4:55 AM 51.8 °F 50.0 °F 94% 30.35 in 10.0 mi Calm Calm - N/A   Overcast
5:15 AM 51.8 °F 51.8 °F 100% 30.35 in 10.0 mi Calm Calm - N/A   Overcast
5:35 AM 53.6 °F 51.8 °F 94% 30.34 in 10.0 mi Calm Calm - N/A   Overcast
5:55 AM 53.6 °F 50.0 °F 88% 30.35 in 10.0 mi Calm Calm - N/A   Overcast
6:15 AM 53.6 °F 51.8 °F 94% 30.35 in 10.0 mi Calm Calm - N/A   Overcast
6:35 AM 53.6 °F 51.8 °F 94% 30.35 in 10.0 mi Calm Calm - N/A   Overcast
6:55 AM 51.8 °F 50.0 °F 94% 30.36 in 10.0 mi Calm Calm - N/A   Mostly Cloudy
7:15 AM 51.8 °F 50.0 °F 94% 30.37 in 10.0 mi Calm Calm - N/A   Overcast
7:35 AM 51.8 °F 50.0 °F 94% 30.37 in 9.0 mi Calm Calm - N/A   Mostly Cloudy
7:55 AM 51.8 °F 50.0 °F 94% 30.38 in 10.0 mi Calm Calm - N/A   Mostly Cloudy
8:15 AM 53.6 °F 51.8 °F 94% 30.38 in 10.0 mi Calm Calm - N/A   Mostly Cloudy
8:35 AM 55.4 °F 51.8 °F 88% 30.38 in 10.0 mi Calm Calm - N/A   Mostly Cloudy
8:55 AM 55.4 °F 51.8 °F 88% 30.39 in 10.0 mi Calm Calm - N/A   Overcast
9:15 AM 57.2 °F 51.8 °F 82% 30.39 in 10.0 mi Calm Calm - N/A   Overcast
9:35 AM 57.2 °F 51.8 °F 82% 30.39 in 10.0 mi Calm Calm - N/A   Mostly Cloudy
9:55 AM 60.8 °F 53.6 °F 77% 30.39 in 10.0 mi Calm Calm - N/A   Mostly Cloudy
10:15 AM 62.6 °F 53.6 °F 72% 30.39 in 10.0 mi SE 4.6 mph - N/A   Scattered Clouds
10:35 AM 64.4 °F 55.4 °F 73% 30.39 in 10.0 mi Calm Calm - N/A   Overcast
10:55 AM 66.2 °F 55.4 °F 68% 30.38 in 10.0 mi Calm Calm - N/A   Mostly Cloudy
11:15 AM 69.8 °F 57.2 °F 64% 30.37 in 10.0 mi SSE 4.6 mph - N/A   Scattered Clouds
11:35 AM 69.8 °F 57.2 °F 64% 30.37 in 10.0 mi SE 5.8 mph - N/A   Clear
11:55 AM 71.6 °F 57.2 °F 60% 30.36 in 10.0 mi Calm Calm - N/A   Clear
12:15 PM 71.6 °F 57.2 °F 60% 30.34 in 10.0 mi SE 3.5 mph - N/A   Partly Cloudy
12:35 PM 71.6 °F 57.2 °F 60% 30.33 in 10.0 mi SSE 5.8 mph - N/A   Partly Cloudy
12:55 PM 73.4 °F 57.2 °F 57% 30.32 in 10.0 mi South 6.9 mph - N/A   Scattered Clouds
1:15 PM 73.4 °F 57.2 °F 57% 30.31 in 10.0 mi South 4.6 mph - N/A   Scattered Clouds
1:35 PM 75.2 °F 55.4 °F 50% 30.30 in 10.0 mi SW 9.2 mph - N/A   Mostly Cloudy
1:55 PM 73.4 °F 55.4 °F 53% 30.29 in 10.0 mi South 6.9 mph - N/A   Mostly Cloudy
2:15 PM 75.2 °F 55.4 °F 50% 30.28 in 10.0 mi South 4.6 mph - N/A   Scattered Clouds
2:35 PM 75.2 °F 55.4 °F 50% 30.28 in 10.0 mi WSW 4.6 mph - N/A   Mostly Cloudy
2:55 PM 75.2 °F 53.6 °F 47% 30.28 in 10.0 mi Calm Calm - N/A   Scattered Clouds
3:15 PM 75.2 °F 55.4 °F 50% 30.27 in 10.0 mi South 4.6 mph - N/A   Clear
3:35 PM 73.4 °F 53.6 °F 50% 30.27 in 10.0 mi SSW 5.8 mph - N/A   Mostly Cloudy
3:55 PM 73.4 °F 53.6 °F 50% 30.27 in 10.0 mi SSW 5.8 mph - N/A   Mostly Cloudy
4:15 PM 73.4 °F 53.6 °F 50% 30.27 in 10.0 mi Calm Calm - N/A   Mostly Cloudy
4:35 PM 75.2 °F 53.6 °F 47% 30.27 in 10.0 mi Calm Calm - N/A   Overcast
4:55 PM 73.4 °F 53.6 °F 50% 30.27 in 10.0 mi Calm Calm - N/A   Mostly Cloudy
5:15 PM 73.4 °F 55.4 °F 53% 30.27 in 10.0 mi Calm Calm - N/A   Mostly Cloudy
5:35 PM 69.8 °F 55.4 °F 60% 30.27 in 10.0 mi Calm Calm - N/A   Partly Cloudy
5:55 PM 66.2 °F 55.4 °F 68% 30.28 in 10.0 mi Calm Calm - N/A   Scattered Clouds
6:15 PM 66.2 °F 55.4 °F 68% 30.28 in 10.0 mi Calm Calm - N/A   Mostly Cloudy
6:35 PM 66.2 °F 55.4 °F 68% 30.28 in 10.0 mi Calm Calm - N/A   Mostly Cloudy
7:15 PM 64.4 °F 55.4 °F 73% 30.29 in 10.0 mi Calm Calm - N/A   Mostly Cloudy
7:55 PM 64.4 °F 57.2 °F 77% 30.29 in 10.0 mi Calm Calm - N/A   Overcast
8:15 PM 64.4 °F 57.2 °F 77% 30.29 in 10.0 mi Calm Calm - N/A   Scattered Clouds
8:55 PM 64.4 °F 57.2 °F 77% 30.30 in 10.0 mi SSE 3.5 mph - N/A   Overcast
9:15 PM 64.4 °F 57.2 °F 77% 30.30 in 10.0 mi Calm Calm - N/A   Overcast
9:35 PM 64.4 °F 57.2 °F 77% 30.30 in 10.0 mi Calm Calm - N/A   Overcast
9:55 PM 62.6 °F 59.0 °F 88% 30.30 in 10.0 mi Calm Calm - N/A   Mostly Cloudy
10:15 PM 62.6 °F 59.0 °F 88% 30.30 in 10.0 mi Calm Calm - N/A   Clear
10:35 PM 60.8 °F 59.0 °F 94% 30.30 in 10.0 mi Calm Calm - N/A   Clear
10:55 PM 60.8 °F 59.0 °F 94% 30.30 in 10.0 mi Calm Calm - N/A   Clear
11:15 PM 57.2 °F 57.2 °F 100% 30.30 in 10.0 mi Calm Calm - N/A   Clear
11:35 PM 57.2 °F 55.4 °F 94% 30.30 in 5.0 mi Calm Calm - N/A   Clear